[[{"header":{"parameterUnit":"m.s-1","parameterCategory":1,"la1":30.2991,"la2":30.254,"lo1":-89.0895,"lo2":-89.0444,"dy":0.0017,"dx":0.0017,"nx":28,"ny":28,"refTime":"2023-08-11T21:00:00:Z","depth":0,"parameterNumber":2,"parameterNumberName":"U-component_of_WINDS"},"data":[0,0,0,0,0,0,0,0,0,0,0,0,0,0,0,0,0,0,0,0,0,0,0,0,0,0,0,0,0,0,0,0,0,0,0,0,0,0,0,0,0,0,0,0,0,0,0,0,0,0,0,0,0,0,0,0,0,0,2.8494,2.8496,0,2.8737,2.874,2.8743,2.8718,2.8714,2.871,2.8707,2.8964,2.8974,2.8985,0,0,0,0,0,0,0,0,0,0,0,0,0,2.8014,2.8023,2.8493,2.8497,2.85,2.8737,2.874,2.8744,2.8719,2.8714,2.8709,2.8705,2.8961,2.8973,2.8986,0,0,0,0,0,0,0,0,0,0,0,0,0,2.8237,2.8026,2.8493,2.8516,2.852,2.8736,2.874,2.8745,2.872,2.8714,2.8708,2.8703,2.8957,2.8972,2.8987,2.9199,0,0,2.9035,2.9042,0,0,0,0,0,0,0,0,2.8224,2.8254,2.8509,2.8514,2.852,2.8691,2.8665,2.8897,2.8721,2.8644,2.8707,2.87,2.8879,2.89,2.8959,2.9211,2.9222,2.9037,2.9046,2.9053,2.9057,0,0,0,0,0,0,0,2.8209,2.8244,2.859,2.8513,2.852,2.8516,2.8541,2.8709,2.8791,2.865,2.8649,2.8678,2.888,2.8944,2.8965,2.9226,2.9036,2.905,2.906,2.9066,2.9667,2.9673,0,0,0,0,0,0,2.8187,2.8231,2.8582,2.8597,2.8354,2.8529,2.8558,2.8642,2.8789,2.8806,2.8683,2.8676,2.892,2.8947,2.8974,2.9233,2.9053,2.9067,2.9076,2.966,2.9668,2.9675,0,0,0,0,0,0,2.8176,2.8218,2.8573,2.8414,2.8459,2.8544,2.8639,2.865,2.8713,2.8813,2.8828,2.8732,2.8917,2.8952,2.9143,2.9242,2.9074,2.9089,2.9652,2.9663,2.9672,2.9753,0,0,0,0,0,0,2.8163,2.8215,2.8294,2.8416,2.8467,2.8736,2.8645,2.8659,2.874,2.8733,2.8864,2.888,2.8915,2.912,2.9159,2.926,2.9101,2.9644,2.9657,2.9668,2.9742,2.9764,2.9783,0,0,0,0,0,2.8146,2.8309,2.8298,2.8341,2.8568,2.8742,2.8771,2.8806,2.8747,2.883,2.8894,2.8876,2.9224,2.914,2.9183,2.9291,2.9638,2.9653,2.9668,2.9732,2.976,2.9783,0,0,0,0,0,0,2.8199,2.8325,2.8315,2.8522,2.8621,2.8737,2.8842,2.8834,2.8954,2.8943,2.8983,2.9013,2.9206,2.9267,2.9171,2.9505,2.9424,2.9448,2.9458,2.9485,2.9505,2.9488,2.9114,0,0,0,0,0,2.8234,2.8362,2.8466,2.8639,2.8689,2.8757,2.8834,2.8851,2.8957,2.8999,2.9078,2.9183,2.9316,2.9403,2.9531,2.9749,2.9779,2.9845,2.9866,2.9882,2.9904,3.0026,3.0058,2.9724,2.9724,2.9723,0,0,2.831,2.8395,2.8473,2.8652,2.8731,2.8865,2.8792,2.8937,2.9038,2.9022,2.9208,2.9269,2.9389,2.9595,2.969,2.9652,3.0002,2.9901,2.9914,2.9927,3.0045,3.0076,3.0104,2.9734,2.9732,2.973,0,0,2.8517,2.8592,2.8745,2.8825,2.8944,2.8988,2.9025,2.9143,2.9182,2.9368,2.9359,2.9481,2.9709,2.9795,2.9869,3.0108,3.0097,3.0149,3.0259,3.0378,3.0404,3.0428,3.0516,3.0547,3.0169,3.0169,3.017,0,2.8597,2.8796,2.8825,2.8972,2.9052,2.904,2.9197,2.9274,2.9431,2.9487,2.9441,2.9728,2.9808,3.0035,3.0093,3.0153,3.0198,3.0136,3.0397,3.0421,3.0444,3.0528,3.0561,3.0175,3.0174,3.0174,3.0173,0,2.889,2.9028,2.9138,2.9286,2.9378,2.9529,2.9584,2.9674,2.9683,2.9733,2.9924,3.0019,3.0167,3.0221,3.0233,3.0451,3.0424,3.0388,3.0308,3.0481,3.0561,3.0594,3.0183,3.0181,3.0179,3.0178,0,0,2.914,2.9301,2.9341,2.9409,2.954,2.9649,2.98,2.9942,3.002,3.0127,3.0258,3.045,3.0417,3.0501,3.0522,3.0626,3.0812,3.0577,3.058,3.062,3.1062,3.1091,3.1128,3.0804,3.081,3.0815,3.1053,0,2.9361,2.9626,2.9657,2.9894,3.0024,3.0015,3.0147,3.0243,3.0293,3.0413,3.0468,3.0606,3.055,3.0601,3.0703,3.0768,3.0902,3.0751,3.0929,3.0935,3.0902,3.1169,3.1201,3.1421,3.1084,3.109,3.1093,0,2.9656,2.977,3.002,3.0133,3.0189,3.0307,3.044,3.0553,3.0663,3.0692,3.0785,3.0793,3.0952,3.0862,3.1084,3.098,3.1054,3.1098,3.1107,3.1128,3.1027,3.1201,3.1491,3.1525,3.1143,3.1139,3.1135,0,2.9817,3.0033,3.0211,3.0269,3.0405,3.0488,3.0549,3.0652,3.0736,3.0853,3.0908,3.1043,3.1118,3.1223,3.1268,3.1198,3.1488,3.1402,3.152,3.1519,3.1585,3.1581,3.1894,3.1627,3.1626,3.1626,3.1625,0,3.0064,3.0218,3.0285,3.0395,3.0568,3.0602,3.0773,3.0831,3.0923,3.1046,3.1045,3.1161,3.1211,3.1336,3.1372,3.1552,3.1585,3.1616,3.1624,3.1618,3.1615,3.167,3.1657,3.1635,3.1633,3.1631,3.1629,0,3.0275,3.0325,3.0519,3.063,3.0662,3.0785,3.0882,3.099,3.1037,3.1193,3.1232,3.1308,3.1455,3.1508,3.1688,3.1712,3.1921,3.1915,3.1884,3.1887,3.2003,3.1993,3.2366,3.2419,3.2113,3.2116,3.2118,0,3.043,3.0548,3.0672,3.0753,3.0816,3.0947,3.1032,3.107,3.1159,3.1292,3.1384,3.1529,3.1648,3.1883,3.1956,3.2094,3.2094,3.2215,3.2115,3.2105,3.21,3.2093,3.2107,3.2235,3.2238,3.2241,3.2243,0,3.0703,3.0721,3.0842,3.0973,3.1073,3.1179,3.1281,3.1348,3.1401,3.1502,3.165,3.1742,3.1923,3.2069,3.221,3.2275,3.2271,3.2273,3.2308,3.2305,3.2283,3.23,3.1938,3.2265,3.2263,3.2261,3.226,3.2259,3.0893,3.0998,3.1102,3.1237,3.1317,3.1412,3.1519,3.1579,3.1703,3.1852,3.1867,3.2028,3.2135,3.2323,3.2395,3.2523,3.2491,3.2541,3.2555,3.2568,3.2578,3.2259,3.2549,3.2548,3.2548,3.2547,3.2547,0,3.1168,3.1234,3.1357,3.1499,3.1606,3.1587,3.1699,3.1791,3.1931,3.203,3.2146,3.2318,3.2459,3.2542,3.2684,3.2771,3.2772,3.2807,3.2803,3.2819,3.2597,3.2554,3.2804,3.2804,3.2804,3.2804,3.2804,3.2804,3.1324,3.1502,3.1533,3.1751,3.1816,3.1971,3.2037,3.2126,3.2205,3.2396,3.2512,3.2564,3.2658,3.2807,3.2936,3.2957,3.3011,3.305,3.3069,3.2861,3.2834,3.2809,3.2769,3.306,3.3061,3.3281,3.3283,3.3285]},{"header":{"parameterUnit":"m.s-1","parameterCategory":1,"la1":30.2991,"la2":30.254,"lo1":-89.0895,"lo2":-89.0444,"dy":0.0017,"dx":0.0017,"nx":28,"ny":28,"refTime":"2023-08-11T21:00:00:Z","depth":0,"parameterNumber":3,"parameterNumberName":"V-component_of_WINDS"},"data":[0,0,0,0,0,0,0,0,0,0,0,0,0,0,0,0,0,0,0,0,0,0,0,0,0,0,0,0,0,0,0,0,0,0,0,0,0,0,0,0,0,0,0,0,0,0,0,0,0,0,0,0,0,0,0,0,0,0,5.0631,5.0633,0,5.0863,5.0866,5.0868,5.0868,5.0865,5.0862,5.0859,5.1093,5.1101,5.111,0,0,0,0,0,0,0,0,0,0,0,0,0,5.0182,5.019,5.0631,5.0634,5.0637,5.0863,5.0866,5.0869,5.0869,5.0865,5.0861,5.0858,5.109,5.11,5.1111,0,0,0,0,0,0,0,0,0,0,0,0,0,5.0392,5.0193,5.063,5.0664,5.0669,5.0862,5.0866,5.087,5.0869,5.0865,5.086,5.0856,5.1086,5.1099,5.1113,5.1286,0,0,5.1154,5.116,0,0,0,0,0,0,0,0,5.038,5.0408,5.0656,5.0662,5.0668,5.0832,5.0793,5.1009,5.087,5.0793,5.0859,5.0854,5.1009,5.1029,5.1082,5.1297,5.1307,5.1155,5.1163,5.1169,5.1173,0,0,0,0,0,0,0,5.0365,5.0398,5.0722,5.0659,5.0667,5.0665,5.069,5.0834,5.0923,5.0799,5.08,5.0828,5.1012,5.1069,5.1088,5.1311,5.1155,5.1167,5.1175,5.118,5.1679,5.1684,0,0,0,0,0,0,5.0345,5.0386,5.0715,5.0729,5.051,5.0677,5.0705,5.0784,5.0922,5.0939,5.0831,5.0827,5.1048,5.1072,5.1096,5.1309,5.1169,5.1182,5.1189,5.1674,5.1681,5.1686,0,0,0,0,0,0,5.0335,5.0374,5.0706,5.0558,5.06,5.069,5.0778,5.0791,5.0848,5.0946,5.0962,5.0874,5.1046,5.1077,5.1239,5.1317,5.1188,5.12,5.1668,5.1676,5.1683,5.1735,0,0,0,0,0,0,5.0322,5.037,5.0439,5.056,5.0608,5.0847,5.0783,5.0799,5.0872,5.0869,5.099,5.1006,5.1044,5.1219,5.1253,5.1333,5.1211,5.1662,5.1672,5.1681,5.1727,5.1744,5.1758,0,0,0,0,0,5.0306,5.0443,5.0442,5.0482,5.0696,5.0851,5.0879,5.0922,5.0878,5.0947,5.101,5.1002,5.1302,5.1236,5.1274,5.1359,5.1657,5.1669,5.168,5.172,5.1741,5.1758,0,0,0,0,0,0,5.0327,5.046,5.046,5.0641,5.0735,5.0851,5.0939,5.0942,5.105,5.1041,5.1088,5.1116,5.1278,5.1334,5.1258,5.1534,5.1474,5.1494,5.1492,5.1512,5.1527,5.151,5.1222,0,0,0,0,0,5.0353,5.0471,5.0579,5.0728,5.0775,5.0849,5.0918,5.0943,5.1042,5.1082,5.1156,5.1251,5.1367,5.1442,5.1554,5.1735,5.1761,5.1812,5.1828,5.184,5.1856,5.1956,5.198,5.1724,5.1724,5.1724,0,0,5.0408,5.0494,5.0565,5.0734,5.081,5.0929,5.0883,5.101,5.1099,5.1101,5.1259,5.1317,5.1426,5.1598,5.1678,5.1651,5.1933,5.1855,5.1864,5.1874,5.197,5.1994,5.2016,5.1732,5.1731,5.1729,0,0,5.0568,5.0646,5.0778,5.0856,5.0972,5.102,5.1052,5.1168,5.1207,5.1367,5.1371,5.1475,5.1674,5.1752,5.1817,5.2006,5.2003,5.2041,5.2122,5.2218,5.2238,5.2256,5.2324,5.2348,5.2057,5.2057,5.2057,0,5.0621,5.0802,5.0846,5.0975,5.1048,5.1057,5.1191,5.1263,5.1409,5.1459,5.1426,5.1676,5.175,5.194,5.1986,5.2039,5.2076,5.2028,5.2232,5.2251,5.2268,5.2333,5.2358,5.2061,5.206,5.206,5.206,0,5.0861,5.0986,5.1079,5.1222,5.1306,5.1436,5.1498,5.1578,5.1595,5.1646,5.1808,5.1897,5.2027,5.2074,5.2091,5.2267,5.2246,5.2222,5.2163,5.2296,5.2357,5.2383,5.2066,5.2065,5.2064,5.2063,0,0,5.1042,5.1207,5.1241,5.1306,5.1434,5.1531,5.1661,5.179,5.1857,5.1957,5.2066,5.2234,5.2213,5.2287,5.2313,5.2397,5.2541,5.2363,5.2367,5.2393,5.274,5.2757,5.2785,5.2539,5.2544,5.2548,5.2731,0,5.1216,5.145,5.1493,5.1696,5.1812,5.1821,5.1934,5.2024,5.2075,5.2179,5.2234,5.2353,5.2316,5.2361,5.2445,5.2506,5.2611,5.2493,5.2641,5.2646,5.2614,5.2818,5.2837,5.3005,5.2755,5.2759,5.2762,0,5.1451,5.1559,5.1774,5.1887,5.1937,5.2039,5.216,5.226,5.2361,5.2392,5.2475,5.2491,5.2625,5.2559,5.2744,5.2662,5.2725,5.2764,5.2771,5.2787,5.2713,5.2839,5.3059,5.3085,5.28,5.2797,5.2795,0,5.1562,5.1761,5.1915,5.197,5.2106,5.2177,5.2236,5.2333,5.2408,5.2513,5.2561,5.268,5.2745,5.2835,5.2882,5.283,5.3064,5.3002,5.3092,5.3091,5.3142,5.3138,5.3375,5.3181,5.3181,5.318,5.318,0,5.1753,5.1884,5.1967,5.2062,5.2209,5.2256,5.2399,5.2457,5.2544,5.2649,5.2663,5.2761,5.2817,5.2922,5.296,5.3107,5.3136,5.3163,5.3172,5.3163,5.3159,5.3205,5.3195,5.3187,5.3185,5.3184,5.3183,0,5.1902,5.1963,5.2132,5.2247,5.2278,5.2382,5.2479,5.2571,5.2621,5.2753,5.2787,5.2866,5.2991,5.3047,5.32,5.3225,5.3393,5.3393,5.3359,5.3363,5.345,5.3441,5.3726,5.3765,5.3544,5.3546,5.3548,0,5.202,5.2122,5.2248,5.232,5.2382,5.2498,5.2574,5.2623,5.2702,5.2825,5.2902,5.3028,5.3131,5.333,5.34,5.3517,5.352,5.3612,5.3538,5.3526,5.3522,5.3516,5.3526,5.3625,5.3628,5.3629,5.3631,0,5.2224,5.2249,5.2359,5.2481,5.2572,5.2669,5.2764,5.2822,5.2886,5.2973,5.3102,5.3183,5.334,5.3465,5.3587,5.3645,5.3649,5.3653,5.3681,5.3673,5.3649,5.3663,5.3397,5.3647,5.3645,5.3644,5.3643,5.3643,5.2362,5.2452,5.2555,5.2677,5.2754,5.2843,5.2935,5.2997,5.3106,5.324,5.3261,5.3398,5.3496,5.3661,5.3724,5.3831,5.3809,5.3848,5.3858,5.3867,5.3873,5.3632,5.3853,5.3853,5.3852,5.3852,5.3852,0,5.2566,5.2632,5.2745,5.2878,5.2974,5.297,5.3075,5.3155,5.3276,5.3368,5.347,5.3618,5.3738,5.3817,5.3939,5.4009,5.4013,5.4039,5.4035,5.4048,5.3886,5.385,5.4034,5.4033,5.4033,5.4033,5.4033,5.4033,5.2684,5.2837,5.2874,5.3065,5.313,5.3266,5.3326,5.3407,5.3481,5.3646,5.3747,5.3798,5.3884,5.4012,5.4122,5.4142,5.4186,5.4213,5.4232,5.4079,5.406,5.4042,5.4009,5.4222,5.4222,5.4386,5.4387,5.4388]}]]